Tracking 29892 objects as of 21-Nov-2024
HD Live streaming from Space Station
objects crossing your sky now

DELTA 1 DEB

Track DELTA 1 DEB now!
10-day predictions


NORAD ID: 7200
Int'l Code: 1973-086FJ
Perigee: 1,439.4 km
Apogee: 1,921.2 km
Inclination: 102.4 °
Period: 119.8 minutes
Semi major axis: 8051 km
RCS: 0.0922 m2 (small)
Launch date: November 6, 1973
Source: United States (US)
Launch site: AIR FORCE WESTERN TEST RANGE (AFWTR)

Note: This is SATELLITE DEBRIS
Your satellite tracking list
Your tracking list is empty




NASA's NSSDC Master Catalog

Two Line Element Set (TLE):
1 07200U 73086FJ  24325.51255814 -.00000146  00000-0 -10962-2 0  9993
2 07200 102.3627 330.4768 0299178 248.5630 270.9735 12.01725978233381
Source of the keplerian elements: AFSPC